Voltar ao catálogo

CZ-6A DEB

AtivoPO
NORAD 60755·DEBRIS·🇨🇳 China

Lançado Aug 6, 2024 de Taiyuan Satellite Launch Center

Loading…

Próximas Passagens (próximas 24 horas)

TLE

AtualizadoSource: Space-Track

Época: Sep 14, 2026, 09:49 UTC

1 60755U 24140EE  26257.40943061  .00000801  00000-0  46295-3 0  9991
2 60755  88.7780 247.7062 0128124 305.1723  53.7510 14.04121546105892

Acompanhe CZ-6A DEB em tempo real com AllMySat

Download on the App Store